Meteo Giornale » Osservazioni meteo Brunei Darussalam » Brunei
ore: 02:30 - Osservazioni Meteo Brunei
Lat. 4° 56' N Lon. 114° 56' E Alt. 22 metri s.l.m.
28 °C
Foschia
Temp. 24 Ore
27 °C
34 °C
Nord
5.5 Km/h
Dew point 27 °C
Umidità 94 %
Visibilità 2 Km
Il sole sorge alle ore 06:14
Il sole tramonta alle ore 18:26
| Data e Ora | Cielo e Fenomeni | T °C | DP °C | Um. % | Pres. hPa | Vis. km | Vento km/h | |
|---|---|---|---|---|---|---|---|---|
| Oggi h: 02:30 | Foschia | 28 | 27 | 94 | 1011 | 2 | N 5.5 | |
| Oggi h: 02:00 | Temporale Foschia | 28 | 27 | 94 | 1011 | 2 | N 5.5 | |
| Oggi h: 01:30 | Temporale Foschia | 28 | 27 | 94 | 1012 | 2 | N 1.8 | |
| Oggi h: 01:00 | Temporale Foschia | 28 | 27 | 94 | 1012 | 2 | N 5.5 | |
| Oggi h: 00:50 | Temporale Foschia | 29 | 27 | 89 | 1012 | 2 | N 5.5 | |
| Oggi h: 00:30 | Foschia | 29 | 27 | 89 | 1012 | 2 | N 5.5 | |
| Oggi h: 00:00 | Foschia | 29 | 28 | 94 | 1012 | 2 | S/SE 7.4 | |
| Ieri h: 23:30 | Foschia | 29 | 28 | 94 | 1012 | 2 | S/SE 7.4 | |
| Ieri h: 23:00 | Foschia | 29 | 28 | 94 | 1012 | 2 | S/SE 7.4 | |
| Ieri h: 22:30 | Foschia | 30 | 28 | 89 | 1012 | 2 | N 5.5 | |
| Ieri h: 22:00 | Foschia | 30 | 28 | 89 | 1012 | 2 | N 5.5 | |
| Ieri h: 21:30 | Foschia | 30 | 28 | 89 | 1012 | 2 | O/SO 7.4 | |
| Ieri h: 21:00 | Foschia | 30 | 28 | 89 | 1012 | 2 | O/SO 7.4 | |
| Ieri h: 20:30 | Foschia | 30 | 28 | 89 | 1011 | 2 | O/SO 7.4 | |
| Ieri h: 20:00 | Foschia | 30 | 28 | 89 | 1011 | 2 | N 5.5 | |
| Ieri h: 19:30 | Foschia | 30 | 27 | 84 | 1011 | 2 | O 7.4 | |
| Ieri h: 19:00 | Foschia | 30 | 27 | 84 | 1010 | 2 | O/SO 9.3 | |
| Ieri h: 18:30 | Foschia | 30 | 28 | 89 | 1010 | 2 | O/SO 11.1 | |
| Ieri h: 18:00 | Foschia | 31 | 27 | 79 | 1010 | 2 | O/SO 14.8 | |
| Ieri h: 17:30 | Foschia | 31 | 28 | 84 | 1009 | 2 | O 18.5 | |
| Ieri h: 17:00 | Foschia | 32 | 27 | 74 | 1009 | 2 | O 18.5 | |
| Ieri h: 16:30 | Foschia | 32 | 27 | 74 | 1009 | 2 | O 16.7 | |
| Ieri h: 16:00 | Foschia | 32 | 27 | 74 | 1009 | 3 | O 20.3 | |
| Ieri h: 15:30 | Foschia | 33 | 27 | 70 | 1009 | 3 | O 20.3 | |
| Ieri h: 15:00 | Foschia | 33 | 27 | 70 | 1009 | 3 | O 20.3 | |
| Ieri h: 14:30 | Foschia | 33 | 26 | 66 | 1009 | 3 | O 20.3 | |
| Ieri h: 14:00 | Foschia | 34 | 26 | 63 | 1010 | 3 | O 20.3 | |
| Ieri h: 13:30 | Foschia | 33 | 26 | 66 | 1010 | 3 | O 16.7 | |
| Ieri h: 13:00 | Foschia | 33 | 26 | 66 | 1010 | 3 | O/SO 11.1 | |
| Ieri h: 12:30 | Foschia | 34 | 27 | 67 | 1011 | 3 | O/SO 13 | |
| Ieri h: 12:00 | Foschia | 34 | 26 | 63 | 1011 | 3 | SO 16.7 | |
| Ieri h: 11:30 | Foschia | 33 | 26 | 66 | 1012 | 3 | S/SO 16.7 | |
| Ieri h: 11:00 | Foschia | 33 | 26 | 66 | 1012 | 3 | S/SO 13 | |
| Ieri h: 10:30 | Foschia | 32 | 26 | 70 | 1012 | 3 | S 13 | |
| Ieri h: 10:00 | Foschia | 32 | 27 | 74 | 1012 | 3 | S/SO 13 | |
| Ieri h: 09:30 | Foschia | 31 | 26 | 74 | 1012 | 5 | SO 11.1 | |
| Ieri h: 09:00 | Foschia | 30 | 26 | 79 | 1012 | 5 | S/SO 7.4 | |
| Ieri h: 08:30 | Foschia | 29 | 26 | 83 | 1013 | 5 | S/SO 7.4 | |
| Ieri h: 08:00 | Foschia | 28 | 26 | 88 | 1012 | 5 | SO 7.4 | |
| Ieri h: 07:30 | Foschia | 28 | 26 | 88 | 1011 | 5 | S 7.4 | |
| Ieri h: 07:00 | Foschia | 27 | 26 | 94 | 1011 | 5 | S 7.4 | |
| Ieri h: 06:30 | Foschia | 27 | 26 | 94 | 1011 | 5 | SO 7.4 | |
| Ieri h: 06:00 | Foschia | 27 | 26 | 94 | 1011 | 5 | N 3.7 | |
| Ieri h: 05:30 | Foschia | 27 | 27 | 100 | 1011 | 5 | SO 7.4 | |
| Ieri h: 05:00 | Foschia | 27 | 26 | 94 | 1011 | 5 | S/SO 7.4 | |
| Ieri h: 04:30 | Foschia | 27 | 26 | 94 | 1011 | 5 | N 3.7 | |
| Ieri h: 04:00 | Foschia | 27 | 26 | 94 | 1011 | 5 | N 3.7 | |



